Regional Weather Roundup
Issued by NWS Burlington, VT

Current Version | Previous Version | Text Only | Print | Product List | Glossary On
Versions: 1 2 3 4 5 6 7 8 9 10 11 12 13 14 15 16 17 18 19 20 21 22 23 24 25 26 27 28 29 30 31 32 33 34 35 36 37 38 39 40 41 42 43 44 45 46 47 48 49 50
000
ASUS41 KBTV 172010
RWRBTV
VERMONT REGIONAL WEATHER ROUNDUP
NATIONAL WEATHER SERVICE BURLINGTON VT
400 PM EDT THU APR 17 2014

NOTE: "FAIR" INDICATES FEW OR NO CLOUDS BELOW 12,000 FEET WITH NO
SIGNIFICANT WEATHER AND/OR OBSTRUCTIONS TO VISIBILITY.

* THESE REPORTS ARE NOT UNDER NWS QUALITY CONTROL AND/OR DO NOT
  REPORT WEATHER SUCH AS PRECIPITATION AND FOG.

VTZ001>019-172100-
_____VERMONT_____


CITY           SKY/WX    TMP DP  RH WIND       PRES   REMARKS
BURLINGTON     MOCLDY    47  19  33 SW5       30.65F
MONTPELIER     PTCLDY    44  13  28 S6        30.68F
MORRISVILLE    PTCLDY    46  12  25 VRB7      30.65F
ST. JOHNSBURY*   N/A     45  15  30 MISG      30.65F
LYNDONVILLE*   FAIR      44  12  27 S6        30.66F
MIDDLEBURY*    FAIR      46  21  38 CALM      30.64F
RUTLAND*       PTCLDY    45  14  29 SE10G16   30.64F
SPRINGFIELD    MOCLDY    47  13  25 E8        30.67F
HIGHGATE*      FAIR      50  25  36 W3        30.66F
NEWPORT*       FAIR      45  12  26 CALM      30.66F
BENNINGTON     PTCLDY    49  14  24 SE3       30.61F
SUTTON*          N/A     43 N/A N/A MISG        N/A

_____LAKE CHAMPLAIN_____


CITY           SKY/WX    TMP DP  RH WIND       PRES   REMARKS
COLCHESTER RF*   N/A     39  25  56 SW12        N/A
DIAMOND ISL*     N/A     43  19  39 SW2         N/A

$$

NYZ007-026>031-035-052-083-172100-
_____NORTHERN NEW YORK_____


CITY           SKY/WX    TMP DP  RH WIND       PRES   REMARKS
PLATTSBURGH    PTCLDY    44  20  38 SE15      30.65F
SARANAC LAKE   CLEAR     46  13  26 SE8G20    30.53F
MASSENA        CLEAR     48  21  34 NE15      30.59F
OGDENSBURG*    CLEAR     54  21  28 E9        30.55F HAZE
POTSDAM*       CLEAR     52  19  28 SE8       30.55F
WATERTOWN      CLEAR     52  18  26 VRB6G16   30.52F
FT DRUM        CLEAR     51  17  26 SE15G22   30.52F
ALBANY         MOCLDY    52  15  23 S6G17     30.62F
GLENS FALLS    PTCLDY    47  20  34 CALM      30.64F

$$
NHZ002-005-011-172100-
_____NEW HAMPSHIRE_____


CITY           SKY/WX    TMP DP  RH WIND       PRES   REMARKS
LEBANON        MOCLDY    47  13  25 SE7       30.67F
KEENE          CLEAR     46  18  31 S8        30.68F
MT WASHINGTON  MOCLDY    25  -2  30 S13         N/A  WCI  13
PLYMOUTH         N/A     45  13  27 SE6       30.70F
WHITEFIELD     PTCLDY    46  18  32 VRB6      30.65F

$$

_____REGIONAL QUEBEC LOCATIONS_____


CITY           SKY/WX    TMP DP  RH WIND       PRES   REMARKS
MONTREAL       MOCLDY    45  18  33 SE14G22   30.66F
QUEBEC CITY    PTCLDY    41  18  38 SE3       30.73F
SHERBROOKE     CLEAR     43  14  31 SE3       30.67F

_____REGIONAL ONTARIO LOCATIONS_____


CITY           SKY/WX    TMP DP  RH WIND       PRES   REMARKS
OTTAWA         MOCLDY    46  21  36 E17G23    30.58F

______KEY______
VSB  - VISIBILITY IN MILES
WCI  - WIND CHILL INDEX
HX   - HEAT INDEX
$$
NNNN


USA.gov is the U.S. government's official web portal to all federal, state and local government web resources and services.